Home   Weather   Pontiac   Past weeks

Flag for USA Past Weather in Pontiac, Michigan, USA — Yesterday and Last 2 Weeks

Now
48 °F

Overcast.


Feels Like: 42 °F
Forecast: 41 / 52 °F
Wind: 14 mph from East

Location: Oakland County International Airport

Current Time: Apr 29, 2017 at 7:55:33 pm

Latest Report: Apr 29, 2017 at 6:53 pm


Visibility: 10 mi

Pressure: 30.22 "Hg

Humidity: 59%

Dew Point: 34 °F

Location of PontiacLocation

Past Weather in Pontiac — Graph

°F

Pontiac Temperature Yesterday

Maximum temperature yesterday: 62 °F (at 1:53 pm)
Minimum temperature yesterday: 45 °F (at 6:53 am)
Average temperature yesterday: 54 °F

High & Low Weather Summary for the Past Weeks

 TemperatureHumidityPressure
High81 °F (Apr 15, 2:53 pm)97% (Apr 20, 4:44 pm)30.33 "Hg (Apr 20, 4:44 pm)
Low35 °F (Apr 18, 3:53 am)19% (Apr 23, 5:53 pm)29.46 "Hg (Apr 27, 6:53 am)
Average56 °F65%29.95 "Hg
* Reported Apr 14 5:53 pm — Apr 29 5:53 pm, Pontiac, Weather by CustomWeather, © 2017

Note: Actual official high and low records may vary slightly from our data, if they occured in-between our weather recording intervals... More about our weather records

Advertising

Pontiac Weather History for the Previous 24 Hours

Scroll right to see more
 ConditionsComfort  
Time TempWeatherWind HumidityBarometerVisibility
5:53 pm
Sat, Apr 29
49 °FLight rain. Overcast.10 mph59%30.22 "Hg10 mi
4:53 pm49 °FMostly cloudy.12 mph64%30.19 "Hg10 mi
3:53 pm50 °FCloudy.10 mph61%30.19 "Hg10 mi
2:53 pm49 °FOvercast.8 mph64%30.22 "Hg10 mi
1:53 pm48 °FMostly cloudy.8 mph61%30.22 "Hg10 mi
1:28 pm47 °FCloudy.8 mph64%30.22 "Hg10 mi
12:53 pm47 °FMostly cloudy.7 mph64%30.22 "Hg10 mi
11:53 am47 °FMore clouds than sun.9 mph64%30.19 "Hg10 mi
10:53 am47 °FMostly cloudy.10 mph64%30.15 "Hg10 mi
9:53 am45 °FMostly cloudy.14 mph63%30.13 "Hg10 mi
8:53 am45 °FPartly sunny.8 mph68%30.16 "Hg10 mi
7:53 am44 °FMostly cloudy.9 mph73%30.11 "Hg10 mi
6:53 am42 °FMostly cloudy.8 mph76%30.07 "Hg10 mi
5:53 am44 °FPassing clouds.14 mph76%30.03 "Hg10 mi
4:53 am52 °FOvercast.3 mph83%30.00 "Hg10 mi
3:53 am52 °FPassing clouds.No wind83%29.98 "Hg10 mi
2:53 am53 °FOvercast.No wind80%29.97 "Hg10 mi
1:53 am54 °FPassing clouds.3 mph77%29.97 "Hg10 mi
12:53 am54 °FOvercast.3 mph80%29.98 "Hg10 mi
11:53 pm
Fri, Apr 28
55 °FPartly cloudy.No wind74%29.95 "Hg10 mi
10:53 pm57 °FOvercast.7 mph72%29.96 "Hg10 mi
9:53 pm58 °FOvercast.9 mph67%29.94 "Hg10 mi
8:53 pm59 °FOvercast.7 mph56%29.92 "Hg10 mi
7:53 pm60 °FMostly cloudy.6 mph49%29.91 "Hg10 mi
Weather by CustomWeather, © 2017

See weather overviewHow to use our weather pages